N13AG -KSAN

Flight info

Callsign N13AG
Flight time N/A
Altitude VFR
Route
Aircraft C206/L-VGD/C

Departure

Time N/A
Airport -

Arrival

Time 2026-05-05 00:17
Airport San Diego International Airport (KSAN)
Time Latitude Longitude Altitude Speed Heading
2026-05-05 00:16 32.73304 -117.17694 21 ft 0 kts 137°
2026-05-05 00:18 32.73298 -117.17700 21 ft 4 kts 274°
2026-05-05 00:19 32.73314 -117.17765 16 ft 18 kts 288°
2026-05-05 00:19 32.73362 -117.17899 23 ft 13 kts 274°
2026-05-05 00:19 32.73336 -117.17960 24 ft 8 kts 199°
2026-05-05 00:19 32.73277 -117.17979 22 ft 10 kts 199°
2026-05-05 00:20 32.73220 -117.17936 19 ft 12 kts 103°
2026-05-05 00:20 32.73195 -117.17828 21 ft 15 kts 105°
2026-05-05 00:20 32.73165 -117.17699 21 ft 17 kts 102°
2026-05-05 00:20 32.73123 -117.17576 20 ft 15 kts 142°
2026-05-05 00:21 32.73094 -117.17551 20 ft 0 kts 144°
2026-05-05 00:21 32.73091 -117.17548 20 ft 0 kts 144°
2026-05-05 00:22 32.73069 -117.17533 20 ft 12 kts 159°
2026-05-05 00:22 32.73018 -117.17562 21 ft 9 kts 267°
2026-05-05 00:23 32.73034 -117.17641 20 ft 10 kts 286°
2026-05-05 00:23 32.73042 -117.17674 19 ft 0 kts 285°
2026-05-05 00:23 32.73042 -117.17676 19 ft 5 kts 285°
2026-05-05 00:24 32.73122 -117.18002 17 ft 75 kts 287°
2026-05-05 00:24 32.73313 -117.18797 36 ft 120 kts 285°
2026-05-05 00:24 32.73566 -117.19833 54 ft 137 kts 285°
2026-05-05 00:24 32.73787 -117.20728 877 ft 87 kts 285°
2026-05-05 00:25 32.74088 -117.21311 1186 ft 99 kts 329°
2026-05-05 00:25 32.74576 -117.20832 1280 ft 111 kts 69°
2026-05-05 00:25 32.74841 -117.19939 1236 ft 116 kts 74°
2026-05-05 00:25 32.74998 -117.19007 1237 ft 116 kts 80°
2026-05-05 00:26 32.75176 -117.17972 1348 ft 128 kts 75°
2026-05-05 00:26 32.75560 -117.17158 1443 ft 102 kts 24°
2026-05-05 00:26 32.76093 -117.17356 1450 ft 85 kts 281°
2026-05-05 00:26 32.75713 -117.17778 1530 ft 96 kts 171°
2026-05-05 00:27 32.75256 -117.17120 1527 ft 111 kts 120°
2026-05-05 00:27 32.74973 -117.16214 1543 ft 120 kts 103°
2026-05-05 00:27 32.74863 -117.15126 1702 ft 142 kts 91°
2026-05-05 00:27 32.74955 -117.13927 1875 ft 137 kts 72°
2026-05-05 00:28 32.75187 -117.12993 1938 ft 105 kts 65°
2026-05-05 00:28 32.75620 -117.12209 2238 ft 93 kts 17°
2026-05-05 00:28 32.75923 -117.12636 2270 ft 106 kts 230°
2026-05-05 00:28 32.75265 -117.12383 2219 ft 111 kts 127°
2026-05-05 00:29 32.74911 -117.11544 2131 ft 111 kts 120°
2026-05-05 00:29 32.74447 -117.10951 2219 ft 91 kts 153°
2026-05-05 00:29 32.73779 -117.10789 2280 ft 118 kts 191°
2026-05-05 00:29 32.73092 -117.11195 2207 ft 112 kts 224°
2026-05-05 00:30 32.72589 -117.11824 2258 ft 92 kts 248°
2026-05-05 00:30 32.72362 -117.12447 2238 ft 72 kts 256°
2026-05-05 00:30 32.72295 -117.13008 2192 ft 68 kts 266°
2026-05-05 00:30 32.72266 -117.13536 2086 ft 65 kts 269°
2026-05-05 00:31 32.72274 -117.14096 1835 ft 72 kts 277°
2026-05-05 00:31 32.72360 -117.14669 1487 ft 71 kts 281°
2026-05-05 00:31 32.72510 -117.15203 1187 ft 67 kts 279°
2026-05-05 00:31 32.72637 -117.15727 918 ft 61 kts 278°
2026-05-05 00:32 32.72746 -117.16190 641 ft 59 kts 281°
2026-05-05 00:32 32.72846 -117.16654 395 ft 58 kts 276°
2026-05-05 00:32 32.72941 -117.17115 230 ft 57 kts 285°
2026-05-05 00:32 32.73021 -117.17549 42 ft 47 kts 276°
2026-05-05 00:33 32.73086 -117.17858 18 ft 31 kts 284°
2026-05-05 00:33 32.73138 -117.18060 17 ft 20 kts 297°